Time,TemperatureF,DewpointF,PressureIn,WindDirection,WindDirectionDegrees,WindSpeedMPH,WindSpeedGustMPH,Humidity,HourlyPrecipIn,Conditions,Clouds,dailyrainin,SoftwareType,DateUTC
2013-05-31 00:01:00,81.0,54.0,29.69,West,279,5.0,12.0,39,0.00,,,0.00,,2013-05-31 07:01:00,
2013-05-31 00:11:00,80.0,54.0,29.70,West,265,4.0,10.0,41,0.00,,,0.00,,2013-05-31 07:11:00,
2013-05-31 00:21:00,80.0,54.0,29.70,West,265,4.0,10.0,41,0.00,,,0.00,,2013-05-31 07:21:00,
2013-05-31 00:31:00,79.0,52.0,29.70,North,353,0.0,3.0,39,0.00,,,0.00,,2013-05-31 07:31:00,
2013-05-31 00:41:00,79.0,52.0,29.70,North,353,0.0,3.0,39,0.00,,,0.00,,2013-05-31 07:41:00,
2013-05-31 00:52:00,77.0,53.0,29.70,ENE,59,0.0,0.0,43,0.00,,,0.00,,2013-05-31 07:52:00,
2013-05-31 01:01:00,77.0,55.0,29.71,ENE,60,0.0,4.0,46,0.00,,,0.00,,2013-05-31 08:01:00,
2013-05-31 01:11:00,77.0,55.0,29.71,ENE,60,0.0,4.0,46,0.00,,,0.00,,2013-05-31 08:11:00,
2013-05-31 01:21:00,76.0,55.0,29.71,East,98,1.0,3.0,48,0.00,,,0.00,,2013-05-31 08:21:00,
2013-05-31 01:31:00,76.0,55.0,29.71,East,98,0.0,0.0,48,0.00,,,0.00,,2013-05-31 08:31:00,
2013-05-31 01:42:00,76.0,55.0,29.71,East,98,0.0,0.0,48,0.00,,,0.00,,2013-05-31 08:42:00,
2013-05-31 01:51:00,75.0,55.0,29.71,East,98,0.0,0.0,49,0.00,,,0.00,,2013-05-31 08:51:00,
2013-05-31 02:01:00,75.0,56.0,29.71,East,96,0.0,1.0,51,0.00,,,0.00,,2013-05-31 09:01:00,
2013-05-31 02:11:00,75.0,56.0,29.71,East,96,0.0,1.0,51,0.00,,,0.00,,2013-05-31 09:11:00,
2013-05-31 02:21:00,75.0,56.0,29.71,East,96,0.0,2.0,51,0.00,,,0.00,,2013-05-31 09:21:00,
2013-05-31 02:32:00,74.0,55.0,29.71,East,96,0.0,1.0,52,0.00,,,0.00,,2013-05-31 09:32:00,
2013-05-31 02:42:00,74.0,55.0,29.71,East,96,0.0,1.0,52,0.00,,,0.00,,2013-05-31 09:42:00,
2013-05-31 02:53:00,73.0,55.0,29.71,East,95,0.0,1.0,54,0.00,,,0.00,,2013-05-31 09:53:00,
2013-05-31 03:02:00,73.0,55.0,29.71,East,95,0.0,0.0,54,0.00,,,0.00,,2013-05-31 10:02:00,
2013-05-31 03:12:00,71.0,54.0,29.71,East,95,0.0,0.0,56,0.00,,,0.00,,2013-05-31 10:12:00,
2013-05-31 03:22:00,71.0,54.0,29.71,East,95,0.0,0.0,56,0.00,,,0.00,,2013-05-31 10:22:00,
2013-05-31 03:32:00,71.0,54.0,29.71,East,95,0.0,0.0,56,0.00,,,0.00,,2013-05-31 10:32:00,
2013-05-31 03:42:00,71.0,54.0,29.71,East,95,0.0,0.0,56,0.00,,,0.00,,2013-05-31 10:42:00,
2013-05-31 03:52:00,70.0,55.0,29.71,East,95,0.0,0.0,59,0.00,,,0.00,,2013-05-31 10:52:00,
2013-05-31 04:01:00,70.0,55.0,29.70,East,95,0.0,0.0,59,0.00,,,0.00,,2013-05-31 11:01:00,
2013-05-31 04:11:00,70.0,55.0,29.70,East,95,0.0,0.0,59,0.00,,,0.00,,2013-05-31 11:11:00,
2013-05-31 04:22:00,70.0,55.0,29.70,East,95,0.0,1.0,59,0.00,,,0.00,,2013-05-31 11:22:00,
2013-05-31 04:32:00,70.0,55.0,29.70,East,95,0.0,0.0,58,0.00,,,0.00,,2013-05-31 11:32:00,
2013-05-31 04:41:00,70.0,55.0,29.70,East,95,0.0,0.0,58,0.00,,,0.00,,2013-05-31 11:41:00,
2013-05-31 04:52:00,69.0,54.0,29.70,East,95,0.0,0.0,59,0.00,,,0.00,,2013-05-31 11:52:00,
2013-05-31 05:01:00,68.0,54.0,29.70,East,95,0.0,0.0,61,0.00,,,0.00,,2013-05-31 12:01:00,
2013-05-31 05:11:00,68.0,54.0,29.70,East,95,0.0,0.0,61,0.00,,,0.00,,2013-05-31 12:11:00,
2013-05-31 05:21:00,68.0,54.0,29.70,East,95,0.0,1.0,62,0.00,,,0.00,,2013-05-31 12:21:00,
2013-05-31 05:31:00,68.0,54.0,29.71,East,95,0.0,0.0,61,0.00,,,0.00,,2013-05-31 12:31:00,
2013-05-31 05:41:00,68.0,54.0,29.71,East,95,0.0,0.0,61,0.00,,,0.00,,2013-05-31 12:41:00,
2013-05-31 05:52:00,68.0,54.0,29.71,East,95,0.0,0.0,62,0.00,,,0.00,,2013-05-31 12:52:00,
2013-05-31 06:01:00,68.0,54.0,29.71,East,95,0.0,0.0,62,0.00,,,0.00,,2013-05-31 13:01:00,
2013-05-31 06:11:00,68.0,54.0,29.71,East,95,0.0,0.0,62,0.00,,,0.00,,2013-05-31 13:11:00,
2013-05-31 06:21:00,69.0,55.0,29.72,East,95,0.0,0.0,61,0.00,,,0.00,,2013-05-31 13:21:00,
2013-05-31 06:32:00,71.0,56.0,29.73,East,95,0.0,0.0,59,0.00,,,0.00,,2013-05-31 13:32:00,
2013-05-31 06:42:00,71.0,56.0,29.73,East,95,0.0,0.0,59,0.00,,,0.00,,2013-05-31 13:42:00,
2013-05-31 06:52:00,74.0,57.0,29.73,East,95,0.0,0.0,56,0.00,,,0.00,,2013-05-31 13:52:00,
2013-05-31 07:02:00,77.0,59.0,29.73,East,95,0.0,0.0,53,0.00,,,0.00,,2013-05-31 14:02:00,
2013-05-31 07:11:00,77.0,59.0,29.73,East,95,0.0,0.0,53,0.00,,,0.00,,2013-05-31 14:11:00,
2013-05-31 07:21:00,79.0,59.0,29.73,East,95,0.0,0.0,50,0.00,,,0.00,,2013-05-31 14:21:00,
2013-05-31 07:31:00,80.0,59.0,29.74,East,95,0.0,2.0,49,0.00,,,0.00,,2013-05-31 14:31:00,
2013-05-31 07:41:00,80.0,59.0,29.74,East,95,0.0,2.0,49,0.00,,,0.00,,2013-05-31 14:41:00,
2013-05-31 07:52:00,80.0,59.0,29.74,East,95,0.0,2.0,48,0.00,,,0.00,,2013-05-31 14:52:00,
2013-05-31 08:01:00,81.0,59.0,29.74,South,190,1.0,3.0,47,0.00,,,0.00,,2013-05-31 15:01:00,
2013-05-31 08:11:00,81.0,59.0,29.74,South,190,1.0,3.0,47,0.00,,,0.00,,2013-05-31 15:11:00,
2013-05-31 08:21:00,82.0,59.0,29.74,WNW,295,2.0,4.0,45,0.00,,,0.00,,2013-05-31 15:21:00,
2013-05-31 08:32:00,83.0,58.0,29.74,West,269,1.0,5.0,43,0.00,,,0.00,,2013-05-31 15:32:00,
2013-05-31 08:42:00,83.0,58.0,29.74,West,269,1.0,5.0,43,0.00,,,0.00,,2013-05-31 15:42:00,
2013-05-31 08:53:00,84.0,58.0,29.74,NW,307,0.0,5.0,41,0.00,,,0.00,,2013-05-31 15:53:00,
2013-05-31 09:03:00,85.0,55.0,29.74,WSW,257,1.0,6.0,36,0.00,,,0.00,,2013-05-31 16:03:00,
2013-05-31 09:12:00,86.0,55.0,29.73,West,272,2.0,8.0,35,0.00,,,0.00,,2013-05-31 16:12:00,
2013-05-31 09:22:00,86.0,55.0,29.73,West,272,2.0,8.0,35,0.00,,,0.00,,2013-05-31 16:22:00,
2013-05-31 09:33:00,86.0,54.0,29.73,WSW,242,2.0,7.0,33,0.00,,,0.00,,2013-05-31 16:33:00,
2013-05-31 09:41:00,86.0,54.0,29.73,WSW,242,2.0,7.0,33,0.00,,,0.00,,2013-05-31 16:41:00,
2013-05-31 09:52:00,87.0,51.0,29.73,WNW,285,2.0,7.0,29,0.00,,,0.00,,2013-05-31 16:52:00,
2013-05-31 10:02:00,87.0,54.0,29.73,West,264,2.0,7.0,33,0.00,,,0.00,,2013-05-31 17:02:00,
2013-05-31 10:12:00,87.0,54.0,29.73,West,264,2.0,7.0,33,0.00,,,0.00,,2013-05-31 17:12:00,
2013-05-31 10:22:00,88.0,54.0,29.73,West,265,2.0,8.0,31,0.00,,,0.00,,2013-05-31 17:22:00,
2013-05-31 10:31:00,89.0,53.0,29.73,WNW,298,2.0,8.0,29,0.00,,,0.00,,2013-05-31 17:31:00,
2013-05-31 10:42:00,89.0,53.0,29.73,WNW,298,2.0,8.0,29,0.00,,,0.00,,2013-05-31 17:42:00,
2013-05-31 10:52:00,89.0,53.0,29.73,WSW,244,1.0,7.0,29,0.00,,,0.00,,2013-05-31 17:52:00,
2013-05-31 11:01:00,90.0,51.0,29.72,NW,310,2.0,8.0,27,0.00,,,0.00,,2013-05-31 18:01:00,
2013-05-31 11:11:00,90.0,51.0,29.72,NW,310,2.0,8.0,27,0.00,,,0.00,,2013-05-31 18:11:00,
2013-05-31 11:21:00,91.0,49.0,29.72,West,259,3.0,9.0,24,0.00,,,0.00,,2013-05-31 18:21:00,
2013-05-31 11:31:00,91.0,49.0,29.72,West,259,3.0,9.0,24,0.00,,,0.00,,2013-05-31 18:31:00,
2013-05-31 11:41:00,91.0,49.0,29.72,West,259,3.0,9.0,24,0.00,,,0.00,,2013-05-31 18:41:00,
2013-05-31 11:52:00,94.0,48.0,29.71,SW,222,3.0,7.0,21,0.00,,,0.00,,2013-05-31 18:52:00,
2013-05-31 12:01:00,95.0,48.0,29.71,WNW,289,4.0,10.0,20,0.00,,,0.00,,2013-05-31 19:01:00,
2013-05-31 12:11:00,95.0,48.0,29.71,WNW,289,4.0,10.0,20,0.00,,,0.00,,2013-05-31 19:11:00,
2013-05-31 12:22:00,94.0,47.0,29.70,NW,319,3.0,10.0,20,0.00,,,0.00,,2013-05-31 19:22:00,
2013-05-31 12:31:00,96.0,46.0,29.70,SSW,213,4.0,14.0,18,0.00,,,0.00,,2013-05-31 19:31:00,
2013-05-31 12:41:00,96.0,43.0,29.70,West,275,4.0,8.0,16,0.00,,,0.00,,2013-05-31 19:41:00,
2013-05-31 12:52:00,96.0,43.0,29.70,West,275,4.0,8.0,16,0.00,,,0.00,,2013-05-31 19:52:00,
2013-05-31 13:01:00,96.0,44.0,29.69,SSE,161,4.0,13.0,17,0.00,,,0.00,,2013-05-31 20:01:00,
2013-05-31 13:11:00,96.0,44.0,29.69,SSE,161,4.0,13.0,17,0.00,,,0.00,,2013-05-31 20:11:00,
2013-05-31 13:22:00,97.0,45.0,29.69,SW,222,4.0,11.0,17,0.00,,,0.00,,2013-05-31 20:22:00,
2013-05-31 13:31:00,97.0,46.0,29.68,South,177,5.0,12.0,18,0.00,,,0.00,,2013-05-31 20:31:00,
2013-05-31 13:41:00,97.0,46.0,29.68,South,177,5.0,12.0,18,0.00,,,0.00,,2013-05-31 20:41:00,
2013-05-31 13:52:00,96.0,44.0,29.67,West,267,6.0,12.0,17,0.00,,,0.00,,2013-05-31 20:52:00,
2013-05-31 14:01:00,97.0,46.0,29.67,WSW,257,4.0,12.0,18,0.00,,,0.00,,2013-05-31 21:01:00,
2013-05-31 14:11:00,97.0,46.0,29.67,WSW,257,4.0,12.0,18,0.00,,,0.00,,2013-05-31 21:11:00,
2013-05-31 14:22:00,97.0,45.0,29.66,WSW,242,6.0,15.0,17,0.00,,,0.00,,2013-05-31 21:22:00,
2013-05-31 14:32:00,98.0,42.0,29.65,SW,215,7.0,15.0,15,0.00,,,0.00,,2013-05-31 21:32:00,
2013-05-31 14:42:00,98.0,41.0,29.65,SSW,213,7.0,13.0,14,0.00,,,0.00,,2013-05-31 21:42:00,
2013-05-31 14:54:00,98.0,41.0,29.65,SSW,213,7.0,13.0,14,0.00,,,0.00,,2013-05-31 21:54:00,
2013-05-31 15:02:00,99.0,37.0,29.64,West,273,6.0,12.0,12,0.00,,,0.00,,2013-05-31 22:02:00,
2013-05-31 15:12:00,99.0,37.0,29.64,West,273,6.0,12.0,12,0.00,,,0.00,,2013-05-31 22:12:00,
2013-05-31 15:22:00,97.0,40.0,29.64,WNW,301,7.0,16.0,14,0.00,,,0.00,,2013-05-31 22:22:00,
2013-05-31 15:33:00,97.0,34.0,29.63,WSW,253,8.0,17.0,11,0.00,,,0.00,,2013-05-31 22:33:00,
2013-05-31 15:41:00,98.0,39.0,29.63,SSW,209,7.0,14.0,13,0.00,,,0.00,,2013-05-31 22:41:00,
2013-05-31 15:52:00,98.0,39.0,29.63,SSW,209,7.0,14.0,13,0.00,,,0.00,,2013-05-31 22:52:00,
2013-05-31 16:02:00,98.0,39.0,29.63,WNW,289,8.0,15.0,13,0.00,,,0.00,,2013-05-31 23:02:00,
2013-05-31 16:12:00,98.0,39.0,29.63,WNW,289,8.0,15.0,13,0.00,,,0.00,,2013-05-31 23:12:00,
2013-05-31 16:21:00,98.0,41.0,29.62,WSW,255,8.0,14.0,14,0.00,,,0.00,,2013-05-31 23:21:00,
2013-05-31 16:32:00,98.0,39.0,29.62,SW,229,8.0,17.0,13,0.00,,,0.00,,2013-05-31 23:32:00,
2013-05-31 16:42:00,97.0,42.0,29.62,SW,234,9.0,16.0,15,0.00,,,0.00,,2013-05-31 23:42:00,
2013-05-31 16:52:00,97.0,42.0,29.62,SW,234,9.0,16.0,15,0.00,,,0.00,,2013-05-31 23:52:00,
2013-05-31 17:01:00,97.0,40.0,29.62,WSW,257,8.0,16.0,14,0.00,,,0.00,,2013-06-01 00:01:00,
2013-05-31 17:11:00,96.0,39.0,29.62,West,280,8.0,16.0,14,0.00,,,0.00,,2013-06-01 00:11:00,
2013-05-31 17:21:00,96.0,39.0,29.62,West,280,8.0,16.0,14,0.00,,,0.00,,2013-06-01 00:21:00,
2013-05-31 17:31:00,96.0,44.0,29.62,West,280,8.0,16.0,17,0.00,,,0.00,,2013-06-01 00:31:00,
2013-05-31 17:42:00,95.0,43.0,29.62,West,259,6.0,16.0,17,0.00,,,0.00,,2013-06-01 00:42:00,
2013-05-31 17:52:00,95.0,43.0,29.62,West,259,6.0,16.0,17,0.00,,,0.00,,2013-06-01 00:52:00,
2013-05-31 18:01:00,95.0,40.0,29.62,WSW,252,7.0,13.0,15,0.00,,,0.00,,2013-06-01 01:01:00,
2013-05-31 18:11:00,94.0,41.0,29.62,WSW,242,7.0,16.0,16,0.00,,,0.00,,2013-06-01 01:11:00,
2013-05-31 18:21:00,94.0,41.0,29.62,WSW,242,7.0,16.0,16,0.00,,,0.00,,2013-06-01 01:21:00,
2013-05-31 18:31:00,94.0,41.0,29.62,West,280,6.0,16.0,16,0.00,,,0.00,,2013-06-01 01:31:00,
2013-05-31 18:41:00,93.0,40.0,29.62,NW,306,6.0,13.0,16,0.00,,,0.00,,2013-06-01 01:41:00,
2013-05-31 18:52:00,93.0,40.0,29.62,NW,306,6.0,13.0,16,0.00,,,0.00,,2013-06-01 01:52:00,
2013-05-31 19:01:00,93.0,40.0,29.62,West,276,4.0,11.0,16,0.00,,,0.00,,2013-06-01 02:01:00,
2013-05-31 19:11:00,91.0,40.0,29.63,WNW,285,3.0,11.0,17,0.00,,,0.00,,2013-06-01 02:11:00,
2013-05-31 19:21:00,91.0,40.0,29.63,WNW,285,3.0,11.0,17,0.00,,,0.00,,2013-06-01 02:21:00,
2013-05-31 19:31:00,90.0,38.0,29.63,WNW,297,2.0,7.0,16,0.00,,,0.00,,2013-06-01 02:31:00,
2013-05-31 19:41:00,89.0,38.0,29.64,NW,307,0.0,4.0,17,0.00,,,0.00,,2013-06-01 02:41:00,
2013-05-31 19:52:00,89.0,38.0,29.64,NW,307,0.0,4.0,17,0.00,,,0.00,,2013-06-01 02:52:00,
2013-05-31 20:01:00,88.0,38.0,29.64,WNW,286,1.0,9.0,17,0.00,,,0.00,,2013-06-01 03:01:00,
2013-05-31 20:11:00,86.0,38.0,29.64,WNW,286,0.0,3.0,18,0.00,,,0.00,,2013-06-01 03:11:00,
2013-05-31 20:21:00,86.0,38.0,29.64,WNW,286,0.0,3.0,18,0.00,,,0.00,,2013-06-01 03:21:00,
2013-05-31 20:33:00,87.0,38.0,29.65,NW,305,1.0,7.0,18,0.00,,,0.00,,2013-06-01 03:33:00,
2013-05-31 20:43:00,88.0,39.0,29.65,NNW,338,2.0,7.0,18,0.00,,,0.00,,2013-06-01 03:43:00,
2013-05-31 20:53:00,88.0,39.0,29.65,NNW,338,2.0,7.0,18,0.00,,,0.00,,2013-06-01 03:53:00,
2013-05-31 21:02:00,86.0,39.0,29.65,North,1,1.0,7.0,19,0.00,,,0.00,,2013-06-01 04:02:00,
2013-05-31 21:12:00,83.0,42.0,29.66,North,1,0.0,0.0,24,0.00,,,0.00,,2013-06-01 04:12:00,
2013-05-31 21:22:00,83.0,42.0,29.66,North,1,0.0,0.0,24,0.00,,,0.00,,2013-06-01 04:22:00,
2013-05-31 21:33:00,81.0,41.0,29.67,North,1,0.0,0.0,24,0.00,,,0.00,,2013-06-01 04:33:00,
2013-05-31 21:42:00,79.0,40.0,29.67,North,1,0.0,2.0,25,0.00,,,0.00,,2013-06-01 04:42:00,
2013-05-31 21:53:00,79.0,40.0,29.67,North,1,0.0,2.0,25,0.00,,,0.00,,2013-06-01 04:53:00,
2013-05-31 22:02:00,79.0,41.0,29.67,NNE,14,0.0,0.0,26,0.00,,,0.00,,2013-06-01 05:02:00,
2013-05-31 22:12:00,79.0,41.0,29.67,NNE,14,0.0,0.0,26,0.00,,,0.00,,2013-06-01 05:12:00,
2013-05-31 22:22:00,78.0,40.0,29.67,NNE,32,0.0,0.0,26,0.00,,,0.00,,2013-06-01 05:22:00,
2013-05-31 22:32:00,77.0,40.0,29.67,NNE,32,0.0,0.0,27,0.00,,,0.00,,2013-06-01 05:32:00,
2013-05-31 22:42:00,76.0,40.0,29.67,NNE,32,0.0,2.0,27,0.00,,,0.00,,2013-06-01 05:42:00,
2013-05-31 22:52:00,76.0,40.0,29.67,NNE,32,0.0,2.0,27,0.00,,,0.00,,2013-06-01 05:52:00,
2013-05-31 23:01:00,76.0,41.0,29.67,NNE,32,0.0,0.0,28,0.00,,,0.00,,2013-06-01 06:01:00,
2013-05-31 23:12:00,75.0,40.0,29.67,NNE,32,0.0,0.0,28,0.00,,,0.00,,2013-06-01 06:12:00,
2013-05-31 23:22:00,75.0,40.0,29.67,NNE,32,0.0,0.0,28,0.00,,,0.00,,2013-06-01 06:22:00,
2013-05-31 23:32:00,74.0,41.0,29.67,NNE,33,0.0,1.0,30,0.00,,,0.00,,2013-06-01 06:32:00,
2013-05-31 23:41:00,73.0,41.0,29.67,NNE,33,0.0,1.0,31,0.00,,,0.00,,2013-06-01 06:41:00,
2013-05-31 23:52:00,73.0,41.0,29.67,NNE,33,0.0,1.0,31,0.00,,,0.00,,2013-06-01 06:52:00,